Location: Gombori
(14.9797°N, 2.9419°W)
Time: 23:07:39
(UTC+00:00)

CSL-04 Rocket - Pass Details

Date: 29 July 2021
Orbit: 806 x 860 km, 98.9° (Epoch: 20 September)

Event Time Altitude Azimuth Distance (km) Brightness Sun altitude
Exits shadow 19:55:16 11° 166° (SSE) 2,367 5.7 -17.1°
Maximum altitude 20:00:30 89° 75° (ENE) 847 3.6 -18.2°
Drops below altitude 10° 20:05:56 10° 348° (NNW) 2,442 6.6 -19.4°
Sets 20:08:16 0° 348° (NNW) 3,368 7.4 -19.9°
